Regional Weather Roundup
Issued by NWS Charleston, SC

Current Version | Previous Version | Graphics & Text | Print | Product List | Glossary On
Versions: 1 2 3 4 5 6 7 8 9 10 11 12 13 14 15 16 17 18 19 20 21 22 23 24 25 26 27 28 29 30 31 32 33 34 35 36 37 38 39 40 41 42 43 44 45 46 47 48 49 50
000
ASUS42 KCHS 202127
RWRCHS

Regional Weather Roundup
National Weather Service Charleston SC
400 PM EST TUE FEB 20 2018

NOTE: "fair" indicates few or no clouds below 12,000 feet with no
significant weather and/or obstructions to visibility.

Not all stations are quality controlled. Use data with caution,
especially dewpoint observations.

SCZ027-030-031-034>040-042>050-202200-
...Southeast South Carolina...

CITY           SKY/WX    TMP DP  RH WIND       PRES   REMARKS
N Charleston   PTSUNNY   77  65  66 S18       30.39S
Waterfront Prk   N/A     68  65  90 SE7       30.24S
Mount Pleasant MOCLDY    75  68  78 SE6       30.40S
Johns Island   CLOUDY    75  68  78 VRB7      30.40S
Pinopolis        N/A     79  66  65 S6        30.31S
Moncks Corner  MOCLDY    75  61  60 S7        30.39R
Summerville    CLOUDY    75  64  69 SE7       30.39S
Beaufort MCAS  CLOUDY    75  68  78 SE10      30.38S
Beaufort Arpt  CLOUDY    73  66  78 SE8       30.38S
Hilton Head Is CLOUDY    73  66  78 SE6       30.39S
Walterboro     CLOUDY    75  64  69 SE8       30.39S
Allendale      CLOUDY    79  64  61 SE15      30.35R

...Southern Midlands and Pee Dee...

CITY           SKY/WX    TMP DP  RH WIND       PRES   REMARKS
Georgetown     FAIR      73  66  78 S9        30.42R
Kingstree      CLOUDY    77  59  53 SE9       30.37S
Orangeburg     PTSUNNY   79  60  52 S10       30.36R
Barnwell         N/A     81  64  57 S9        30.35S
Aiken          MOCLDY    77  59  53 S6        30.39S
Manning        MOCLDY    79  61  53 MISG      30.37S
Columbia       FAIR      80  60  50 S8        30.35S
Sumter         PTSUNNY   80  59  48 S13       30.35S
Florence       PTSUNNY   80  61  52 S8G17     30.37S
Myrtle Beach   FAIR      71  65  81 S10       30.42S
N Myrtle Beach FAIR      71  65  81 SE8       30.41S

$$

GAZ063-065-086>088-099>101-113>116-118-119-134>141-150-202200-
...Southeast Georgia...

CITY           SKY/WX    TMP DP  RH WIND       PRES   REMARKS
Savannah Arpt  PTSUNNY   73  70  90 SE7       30.37S
Hunter AAF     PTSUNNY   73  72  94 SE8       30.35S
Fort Stewart   MOSUNNY   78  67  69 SE10      30.33S
Statesboro     CLOUDY    80  60  50 S9        30.35R
Sylvania       CLOUDY    79  67  68 S7        30.36R
Claxton        CLOUDY    81  66  61 SE7       30.34S

...CSRA, Central and far Southeast Georgia...

CITY           SKY/WX    TMP DP  RH WIND       PRES   REMARKS
Thomson        PTSUNNY   78  60  54 SW7       30.39S
Augusta-Bush   CLOUDY    81  58  45 S7        30.33S
Augusta-Daniel PTSUNNY   81  58  45 S14       30.35S
Swainsboro     CLOUDY    81  63  54 S6        30.34S
Vidalia        CLOUDY    81  63  54 S5        30.33S
Eastman        CLOUDY    81  52  36 S5        30.35S
Hazlehurst     MOCLDY    82  56  40 S3        30.31S
Alma           CLOUDY    81  63  54 SE7       30.32S
Waycross       CLOUDY    79  63  57 SE6       30.32S
Jesup          CLOUDY    81  63  54 SE8       30.34S
Baxley         CLOUDY    77  63  61 SE8       30.32S
Brunswick      CLOUDY    77  64  65 SE14      30.37R
Saint Simons   FAIR      75  68  78 SE12      30.36R

$$

SCZ027-028-034-036>038-045-046-048>050-GAZ119-141-202200-
...Lake and Supplemental Coastal Observations...

STATION/POSITION TIME  TEMP    WIND        PRES    WAVE   SWELL
                       AIR SEA DIR/SP/G            HT/PER HT/PER/DIR
                 (UTC) (F)     (DEG/KT/KT) (MB)    (FT/S) (FT/S/D)
Winyah Bay       2045   71     140/  6     1030.0S
Lake Murray      2020   70        CALM     1027.1
ACE Basin NERRS  2045   74     150/  3     1029.0S
Fort Pulaski     2100   72 60  140/  7/ 12 1029.0
Sapelo Island    2100   78     160/  9     1028.0

$$

ANZ835-935-AMZ111-154-330-350-352-354-370-450-454-472-202200-
...C-MAN and Buoy Observations...

STATION/POSITION TIME  TEMP    WIND        PRES    WAVE   SWELL
                       AIR SEA DIR/SP/G            HT/PER HT/PER/DIR
                 (UTC) (F)     (DEG/KT/KT) (MB)    (FT/S) (FT/S/D)
Buoy 41004       2110   71 68  140/  6/  8 1029.4
Buoy 41008       2050   64 60   80/  6/  6 1028.2R   3/ 6   3/110/ 6
Folly Beach CMAN 2000   65      50/  3/  4 1030.1F
Capers Nearshore 2108   63 60   70/  4/  8 1029.3S
Fripp Nearshore  2008   66 60   80/  4/  6 1027.7F


STATION/POSITION TIME  TEMP    WIND        PRES    WAVE   SWELL
                       AIR SEA DIR/SP/G            HT/PER HT/PER/DIR
                 (UTC) (F)     (DEG/KT/KT) (MB)    (FT/S) (FT/S/D)
5E St. Marys GA  2100      64                N/A     3/ 6
Frying Pan Buoy  2110   72 70  130/  6/  8 1030.5
Buoy 41025       2110   73 72  170/ 16/ 21 1031.4
Cape Lookout NC  2000          160/  4/  6 1031.5F
Buoy 41002       2050   72 75  110/ 12/ 14 1031.5S   4/11   3/ 30/11
Buoy 41010       NOT AVBL
St Augustine FL  2100   69 63  110/  7/  8 1027.3F


$$



USA.gov is the U.S. government's official web portal to all federal, state and local government web resources and services.